Time,TemperatureF,DewpointF,PressureIn,WindDirection,WindDirectionDegrees,WindSpeedMPH,WindSpeedGustMPH,Humidity,HourlyPrecipIn,Conditions,Clouds,dailyrainin,SoftwareType,DateUTC
2013-04-16 00:01:00,26.5,9.9,30.19,South,188,8.0,11.0,49,0.00,,,0.00,Wunderground v.1.15,2013-04-16 08:01:00,
2013-04-16 00:07:00,26.5,10.3,30.18,South,179,8.0,11.0,50,0.00,,,0.00,Wunderground v.1.15,2013-04-16 08:07:00,
2013-04-16 00:13:00,26.3,10.6,30.18,SSW,193,8.0,9.0,51,0.00,,,0.00,Wunderground v.1.15,2013-04-16 08:13:00,
2013-04-16 00:19:00,26.2,10.5,30.18,SSW,193,8.0,11.0,51,0.00,,,0.00,Wunderground v.1.15,2013-04-16 08:19:00,
2013-04-16 00:24:00,26.1,10.4,30.18,SSW,194,8.0,13.0,51,0.00,,,0.00,Wunderground v.1.15,2013-04-16 08:24:00,
2013-04-16 00:30:00,26.1,10.9,30.18,SSW,197,8.0,11.0,52,0.00,,,0.00,Wunderground v.1.15,2013-04-16 08:30:00,
2013-04-16 00:36:00,26.0,10.8,30.18,SSW,200,9.0,11.0,52,0.00,,,0.00,Wunderground v.1.15,2013-04-16 08:36:00,
2013-04-16 00:42:00,25.9,11.1,30.18,South,186,9.0,9.0,53,0.00,,,0.00,Wunderground v.1.15,2013-04-16 08:42:00,
2013-04-16 00:48:00,25.9,11.5,30.18,SSW,212,10.0,10.0,54,0.00,,,0.00,Wunderground v.1.15,2013-04-16 08:48:00,
2013-04-16 00:53:00,25.7,11.3,30.18,SSE,160,9.0,10.0,54,0.00,,,0.00,Wunderground v.1.15,2013-04-16 08:53:00,
2013-04-16 00:59:00,25.6,11.7,30.18,South,184,9.0,9.0,55,0.00,,,0.00,Wunderground v.1.15,2013-04-16 08:59:00,
2013-04-16 01:04:00,25.5,11.1,30.17,SSW,200,9.0,14.0,54,0.00,,,0.00,Wunderground v.1.15,2013-04-16 09:04:00,
2013-04-16 01:09:00,25.5,11.1,30.17,South,191,9.0,11.0,54,0.00,,,0.00,Wunderground v.1.15,2013-04-16 09:09:00,
2013-04-16 01:15:00,25.5,10.7,30.17,South,179,9.0,11.0,53,0.00,,,0.00,Wunderground v.1.15,2013-04-16 09:15:00,
2013-04-16 01:20:00,25.5,10.7,30.17,South,179,9.0,9.0,53,0.00,,,0.00,Wunderground v.1.15,2013-04-16 09:20:00,
2013-04-16 01:25:00,25.5,11.1,30.17,South,174,9.0,12.0,54,0.00,,,0.00,Wunderground v.1.15,2013-04-16 09:25:00,
2013-04-16 01:30:00,25.3,11.4,30.17,SSW,193,9.0,10.0,55,0.00,,,0.00,Wunderground v.1.15,2013-04-16 09:30:00,
2013-04-16 01:36:00,25.1,11.6,30.17,SSW,204,9.0,10.0,56,0.00,,,0.00,Wunderground v.1.15,2013-04-16 09:36:00,
2013-04-16 01:41:00,25.2,11.3,30.17,South,180,9.0,12.0,55,0.00,,,0.00,Wunderground v.1.15,2013-04-16 09:41:00,
2013-04-16 01:46:00,25.2,11.3,30.17,South,188,10.0,12.0,55,0.00,,,0.00,Wunderground v.1.15,2013-04-16 09:46:00,
2013-04-16 01:51:00,25.3,11.4,30.17,South,186,9.0,10.0,55,0.00,,,0.00,Wunderground v.1.15,2013-04-16 09:51:00,
2013-04-16 01:58:00,25.3,11.0,30.17,South,189,8.0,11.0,54,0.00,,,0.00,Wunderground v.1.15,2013-04-16 09:58:00,
2013-04-16 02:03:00,25.2,11.3,30.17,South,191,8.0,11.0,55,0.00,,,0.00,Wunderground v.1.15,2013-04-16 10:03:00,
2013-04-16 02:08:00,25.3,11.0,30.17,South,177,9.0,11.0,54,0.00,,,0.00,Wunderground v.1.15,2013-04-16 10:08:00,
2013-04-16 02:14:00,25.1,11.2,30.17,South,173,9.0,11.0,55,0.00,,,0.00,Wunderground v.1.15,2013-04-16 10:14:00,
2013-04-16 02:20:00,24.7,10.8,30.16,SSW,198,8.0,11.0,55,0.00,,,0.00,Wunderground v.1.15,2013-04-16 10:20:00,
2013-04-16 02:25:00,24.6,10.7,30.16,South,180,8.0,11.0,55,0.00,,,0.00,Wunderground v.1.15,2013-04-16 10:25:00,
2013-04-16 02:31:00,24.5,11.0,30.16,South,176,8.0,8.0,56,0.00,,,0.00,Wunderground v.1.15,2013-04-16 10:31:00,
2013-04-16 02:37:00,24.3,10.8,30.16,SSW,194,8.0,9.0,56,0.00,,,0.00,Wunderground v.1.15,2013-04-16 10:37:00,
2013-04-16 02:42:00,24.2,10.7,30.16,SSW,208,8.0,10.0,56,0.00,,,0.00,Wunderground v.1.15,2013-04-16 10:42:00,
2013-04-16 02:48:00,24.0,11.0,30.16,SSW,198,8.0,10.0,57,0.00,,,0.00,Wunderground v.1.15,2013-04-16 10:48:00,
2013-04-16 02:53:00,24.0,11.0,30.16,SSE,166,8.0,11.0,57,0.00,,,0.00,Wunderground v.1.15,2013-04-16 10:53:00,
2013-04-16 02:59:00,23.9,10.9,30.16,South,187,8.0,8.0,57,0.00,,,0.00,Wunderground v.1.15,2013-04-16 10:59:00,
2013-04-16 03:05:00,23.8,11.2,30.15,South,179,8.0,11.0,58,0.00,,,0.00,Wunderground v.1.15,2013-04-16 11:05:00,
2013-04-16 03:11:00,23.7,11.1,30.15,South,176,8.0,8.0,58,0.00,,,0.00,Wunderground v.1.15,2013-04-16 11:11:00,
2013-04-16 03:16:00,23.4,10.8,30.15,South,184,7.0,9.0,58,0.00,,,0.00,Wunderground v.1.15,2013-04-16 11:16:00,
2013-04-16 03:22:00,23.3,10.7,30.15,South,186,7.0,9.0,58,0.00,,,0.00,Wunderground v.1.15,2013-04-16 11:22:00,
2013-04-16 03:29:00,22.9,10.7,30.15,SSW,197,7.0,9.0,59,0.00,,,0.00,Wunderground v.1.15,2013-04-16 11:29:00,
2013-04-16 03:35:00,22.8,10.6,30.15,South,174,7.0,9.0,59,0.00,,,0.00,Wunderground v.1.15,2013-04-16 11:35:00,
2013-04-16 03:40:00,22.5,10.7,30.14,South,179,7.0,7.0,60,0.00,,,0.00,Wunderground v.1.15,2013-04-16 11:40:00,
2013-04-16 03:45:00,22.3,10.5,30.14,SSE,162,6.0,7.0,60,0.00,,,0.00,Wunderground v.1.15,2013-04-16 11:45:00,
2013-04-16 03:52:00,22.3,10.5,30.14,South,177,6.0,6.0,60,0.00,,,0.00,Wunderground v.1.15,2013-04-16 11:52:00,
2013-04-16 03:57:00,22.4,10.6,30.14,South,188,5.0,6.0,60,0.00,,,0.00,Wunderground v.1.15,2013-04-16 11:57:00,
2013-04-16 04:03:00,22.4,10.6,30.14,SSW,197,5.0,6.0,60,0.00,,,0.00,Wunderground v.1.15,2013-04-16 12:03:00,
2013-04-16 04:09:00,22.4,10.6,30.14,South,175,5.0,5.0,60,0.00,,,0.00,Wunderground v.1.15,2013-04-16 12:09:00,
2013-04-16 04:15:00,22.4,11.0,30.14,South,170,5.0,7.0,61,0.00,,,0.00,Wunderground v.1.15,2013-04-16 12:15:00,
2013-04-16 04:21:00,22.5,10.7,30.14,SSW,193,5.0,6.0,60,0.00,,,0.00,Wunderground v.1.15,2013-04-16 12:21:00,
2013-04-16 04:26:00,22.4,11.0,30.13,South,177,5.0,7.0,61,0.00,,,0.00,Wunderground v.1.15,2013-04-16 12:26:00,
2013-04-16 04:31:00,22.4,11.0,30.13,SSW,193,5.0,6.0,61,0.00,,,0.00,Wunderground v.1.15,2013-04-16 12:31:00,
2013-04-16 04:36:00,22.4,11.0,30.13,SSW,200,5.0,6.0,61,0.00,,,0.00,Wunderground v.1.15,2013-04-16 12:36:00,
2013-04-16 04:41:00,22.4,11.0,30.13,SSW,198,6.0,9.0,61,0.00,,,0.00,Wunderground v.1.15,2013-04-16 12:41:00,
2013-04-16 04:46:00,22.5,11.1,30.13,SSW,203,6.0,9.0,61,0.00,,,0.00,Wunderground v.1.15,2013-04-16 12:46:00,
2013-04-16 04:51:00,22.4,11.0,30.13,SSW,204,6.0,7.0,61,0.00,,,0.00,Wunderground v.1.15,2013-04-16 12:51:00,
2013-04-16 04:57:00,22.3,11.2,30.13,South,183,6.0,8.0,62,0.00,,,0.00,Wunderground v.1.15,2013-04-16 12:57:00,
2013-04-16 05:03:00,22.2,11.1,30.12,SSW,206,7.0,8.0,62,0.00,,,0.00,Wunderground v.1.15,2013-04-16 13:03:00,
2013-04-16 05:08:00,22.2,11.1,30.12,SSW,205,7.0,8.0,62,0.00,,,0.00,Wunderground v.1.15,2013-04-16 13:08:00,
2013-04-16 05:13:00,22.2,11.5,30.12,SW,233,6.0,7.0,63,0.00,,,0.00,Wunderground v.1.15,2013-04-16 13:13:00,
2013-04-16 05:18:00,22.0,11.3,30.12,SSW,203,5.0,7.0,63,0.00,,,0.00,Wunderground v.1.15,2013-04-16 13:18:00,
2013-04-16 05:24:00,21.8,11.1,30.12,WNW,298,3.0,6.0,63,0.00,,,0.00,Wunderground v.1.15,2013-04-16 13:24:00,
2013-04-16 05:30:00,21.4,11.1,30.12,WSW,248,2.0,3.0,64,0.00,,,0.00,Wunderground v.1.15,2013-04-16 13:30:00,
2013-04-16 05:35:00,21.5,11.2,30.12,SW,217,3.0,7.0,64,0.00,,,0.00,Wunderground v.1.15,2013-04-16 13:35:00,
2013-04-16 05:40:00,21.4,11.1,30.11,SSW,211,4.0,7.0,64,0.00,,,0.00,Wunderground v.1.15,2013-04-16 13:40:00,
2013-04-16 05:45:00,21.2,11.3,30.11,SW,215,4.0,7.0,65,0.00,,,0.00,Wunderground v.1.15,2013-04-16 13:45:00,
2013-04-16 05:50:00,21.0,11.1,30.11,SSW,193,5.0,7.0,65,0.00,,,0.00,Wunderground v.1.15,2013-04-16 13:50:00,
2013-04-16 05:55:00,21.3,11.0,30.11,South,177,5.0,9.0,64,0.00,,,0.00,Wunderground v.1.15,2013-04-16 13:55:00,
2013-04-16 06:01:00,21.5,11.2,30.11,South,181,6.0,11.0,64,0.00,,,0.00,Wunderground v.1.15,2013-04-16 14:01:00,
2013-04-16 06:07:00,21.4,11.1,30.11,SSW,198,4.0,11.0,64,0.00,,,0.00,Wunderground v.1.15,2013-04-16 14:07:00,
2013-04-16 06:12:00,21.3,11.0,30.11,SW,228,3.0,11.0,64,0.00,,,0.00,Wunderground v.1.15,2013-04-16 14:12:00,
2013-04-16 06:18:00,21.5,11.2,30.11,SSW,197,3.0,11.0,64,0.00,,,0.00,Wunderground v.1.15,2013-04-16 14:18:00,
2013-04-16 06:23:00,21.5,11.2,30.10,WSW,245,3.0,11.0,64,0.00,,,0.00,Wunderground v.1.15,2013-04-16 14:23:00,
2013-04-16 06:28:00,21.3,11.0,30.11,SSW,195,2.0,11.0,64,0.00,,,0.00,Wunderground v.1.15,2013-04-16 14:28:00,
2013-04-16 06:32:00,21.3,11.0,30.10,SW,235,2.0,11.0,64,0.00,,,0.00,Wunderground v.1.15,2013-04-16 14:32:00,
2013-04-16 06:38:00,21.1,10.8,30.10,SSW,195,3.0,11.0,64,0.00,,,0.00,Wunderground v.1.15,2013-04-16 14:38:00,
2013-04-16 06:43:00,21.1,10.8,30.10,SSW,204,3.0,11.0,64,0.00,,,0.00,Wunderground v.1.15,2013-04-16 14:43:00,
2013-04-16 06:48:00,21.1,10.8,30.10,SW,218,3.0,11.0,64,0.00,,,0.00,Wunderground v.1.15,2013-04-16 14:48:00,
2013-04-16 06:53:00,21.2,10.9,30.10,SSW,204,4.0,11.0,64,0.00,,,0.00,Wunderground v.1.15,2013-04-16 14:53:00,
2013-04-16 06:58:00,21.5,10.5,30.10,NNW,340,3.0,11.0,62,0.00,,,0.00,Wunderground v.1.15,2013-04-16 14:58:00,
2013-04-16 07:05:00,21.6,10.2,30.10,NNE,15,2.0,11.0,61,0.00,,,0.00,Wunderground v.1.15,2013-04-16 15:05:00,
2013-04-16 07:10:00,21.1,11.2,30.10,NE,39,1.0,11.0,65,0.00,,,0.00,Wunderground v.1.15,2013-04-16 15:10:00,
2013-04-16 07:16:00,20.5,10.9,30.10,NE,54,1.0,11.0,66,0.00,,,0.00,Wunderground v.1.15,2013-04-16 15:16:00,
2013-04-16 07:22:00,20.0,10.8,30.10,ENE,69,1.0,11.0,67,0.00,,,0.00,Wunderground v.1.15,2013-04-16 15:22:00,
2013-04-16 07:27:00,19.9,10.7,30.10,ENE,75,1.0,11.0,67,0.00,,,0.00,Wunderground v.1.15,2013-04-16 15:27:00,
2013-04-16 07:32:00,20.0,10.8,30.10,East,93,2.0,11.0,67,0.00,,,0.00,Wunderground v.1.15,2013-04-16 15:32:00,
2013-04-16 07:37:00,20.2,10.0,30.10,South,183,2.0,11.0,64,0.00,,,0.00,Wunderground v.1.15,2013-04-16 15:37:00,
2013-04-16 07:43:00,22.5,9.9,30.09,SW,225,3.0,11.0,58,0.00,,,0.00,Wunderground v.1.15,2013-04-16 15:43:00,
2013-04-16 07:49:00,23.6,9.4,30.09,SW,235,3.0,11.0,54,0.00,,,0.00,Wunderground v.1.15,2013-04-16 15:49:00,
2013-04-16 07:55:00,24.2,9.1,30.09,South,191,3.0,11.0,52,0.00,,,0.00,Wunderground v.1.15,2013-04-16 15:55:00,
2013-04-16 08:00:00,24.6,9.5,30.09,SSW,201,4.0,5.0,52,0.00,,,0.00,Wunderground v.1.15,2013-04-16 16:00:00,
2013-04-16 08:05:00,24.8,9.2,30.09,SSE,153,4.0,11.0,51,0.00,,,0.00,Wunderground v.1.15,2013-04-16 16:05:00,
2013-04-16 08:11:00,24.8,9.6,30.09,SW,224,3.0,11.0,52,0.00,,,0.00,Wunderground v.1.15,2013-04-16 16:11:00,
2013-04-16 08:16:00,24.9,9.7,30.09,SW,222,2.0,11.0,52,0.00,,,0.00,Wunderground v.1.15,2013-04-16 16:16:00,
2013-04-16 08:22:00,25.0,9.4,30.09,WNW,300,2.0,11.0,51,0.00,,,0.00,Wunderground v.1.15,2013-04-16 16:22:00,
2013-04-16 08:27:00,25.3,9.2,30.09,South,179,2.0,11.0,50,0.00,,,0.00,Wunderground v.1.15,2013-04-16 16:27:00,
2013-04-16 08:32:00,25.0,11.1,30.09,North,353,2.0,11.0,55,0.00,,,0.00,Wunderground v.1.15,2013-04-16 16:32:00,
2013-04-16 08:38:00,24.6,10.7,30.09,NNE,18,2.0,11.0,55,0.00,,,0.00,Wunderground v.1.15,2013-04-16 16:38:00,
2013-04-16 08:44:00,24.8,10.9,30.09,North,352,2.0,11.0,55,0.00,,,0.00,Wunderground v.1.15,2013-04-16 16:44:00,
2013-04-16 08:49:00,25.4,10.2,30.08,NNE,21,1.0,11.0,52,0.00,,,0.00,Wunderground v.1.15,2013-04-16 16:49:00,
2013-04-16 08:54:00,25.1,12.8,30.08,NE,41,2.0,11.0,59,0.00,,,0.00,Wunderground v.1.15,2013-04-16 16:54:00,
2013-04-16 09:00:00,24.8,13.2,30.08,NE,34,2.0,2.0,61,0.00,,,0.00,Wunderground v.1.15,2013-04-16 17:00:00,
2013-04-16 09:06:00,25.1,13.5,30.08,NE,34,1.0,11.0,61,0.00,,,0.00,Wunderground v.1.15,2013-04-16 17:06:00,
2013-04-16 09:11:00,25.4,13.8,30.08,NE,36,1.0,11.0,61,0.00,,,0.00,Wunderground v.1.15,2013-04-16 17:11:00,
2013-04-16 09:16:00,25.6,12.1,30.08,NNW,328,1.0,11.0,56,0.00,,,0.00,Wunderground v.1.15,2013-04-16 17:16:00,
2013-04-16 09:21:00,25.4,12.7,30.08,NNW,346,2.0,11.0,58,0.00,,,0.00,Wunderground v.1.15,2013-04-16 17:21:00,
2013-04-16 09:26:00,25.7,11.3,30.08,NW,308,2.0,11.0,54,0.00,,,0.00,Wunderground v.1.15,2013-04-16 17:26:00,
2013-04-16 09:32:00,26.1,12.1,30.08,NE,41,2.0,11.0,55,0.00,,,0.00,Wunderground v.1.15,2013-04-16 17:32:00,
2013-04-16 09:37:00,25.9,14.3,30.07,NE,46,2.0,11.0,61,0.00,,,0.00,Wunderground v.1.15,2013-04-16 17:37:00,
2013-04-16 09:42:00,25.6,14.0,30.07,WSW,242,1.0,7.0,61,0.00,,,0.00,Wunderground v.1.15,2013-04-16 17:42:00,
2013-04-16 09:47:00,26.3,11.0,30.07,North,11,3.0,11.0,52,0.00,,,0.00,Wunderground v.1.15,2013-04-16 17:47:00,
2013-04-16 09:53:00,26.0,13.2,30.07,WSW,237,3.0,11.0,58,0.00,,,0.00,Wunderground v.1.15,2013-04-16 17:53:00,
2013-04-16 09:58:00,26.6,9.5,30.07,SW,231,3.0,11.0,48,0.00,,,0.00,Wunderground v.1.15,2013-04-16 17:58:00,
2013-04-16 10:04:00,26.7,9.1,30.07,WSW,255,4.0,11.0,47,0.00,,,0.00,Wunderground v.1.15,2013-04-16 18:04:00,
2013-04-16 10:09:00,26.6,8.6,30.07,NW,310,6.0,6.0,46,0.00,,,0.00,Wunderground v.1.15,2013-04-16 18:09:00,
2013-04-16 10:14:00,26.7,9.1,30.07,WSW,257,6.0,11.0,47,0.00,,,0.00,Wunderground v.1.15,2013-04-16 18:14:00,
2013-04-16 10:20:00,26.5,8.0,30.06,ESE,105,6.0,11.0,45,0.00,,,0.00,Wunderground v.1.15,2013-04-16 18:20:00,
2013-04-16 10:25:00,26.6,8.6,30.06,ESE,120,7.0,11.0,46,0.00,,,0.00,Wunderground v.1.15,2013-04-16 18:25:00,
2013-04-16 10:31:00,26.6,8.1,30.06,East,91,6.0,11.0,45,0.00,,,0.00,Wunderground v.1.15,2013-04-16 18:31:00,
2013-04-16 10:37:00,27.1,8.5,30.06,ESE,113,4.0,11.0,45,0.00,,,0.00,Wunderground v.1.15,2013-04-16 18:37:00,
2013-04-16 10:42:00,27.4,8.8,30.07,SE,137,3.0,11.0,45,0.00,,,0.00,Wunderground v.1.15,2013-04-16 18:42:00,
2013-04-16 10:47:00,27.8,9.2,30.07,South,176,2.0,11.0,45,0.00,,,0.00,Wunderground v.1.15,2013-04-16 18:47:00,
2013-04-16 10:52:00,28.1,8.4,30.06,ENE,57,2.0,11.0,43,0.00,,,0.00,Wunderground v.1.15,2013-04-16 18:52:00,
2013-04-16 10:58:00,28.0,7.8,30.06,SE,130,3.0,11.0,42,0.00,,,0.00,Wunderground v.1.15,2013-04-16 18:58:00,
2013-04-16 11:03:00,27.7,8.1,30.06,SSE,165,4.0,11.0,43,0.00,,,0.00,Wunderground v.1.15,2013-04-16 19:03:00,
2013-04-16 11:09:00,27.4,7.3,30.06,ESE,123,6.0,11.0,42,0.00,,,0.00,Wunderground v.1.15,2013-04-16 19:09:00,
2013-04-16 11:14:00,27.1,7.0,30.06,ESE,122,7.0,11.0,42,0.00,,,0.00,Wunderground v.1.15,2013-04-16 19:14:00,
2013-04-16 11:19:00,27.0,6.9,30.06,SE,131,8.0,11.0,42,0.00,,,0.00,Wunderground v.1.15,2013-04-16 19:19:00,
2013-04-16 11:24:00,27.0,6.9,30.06,SE,146,8.0,11.0,42,0.00,,,0.00,Wunderground v.1.15,2013-04-16 19:24:00,
2013-04-16 11:30:00,27.1,7.0,30.06,SE,129,8.0,8.0,42,0.00,,,0.00,Wunderground v.1.15,2013-04-16 19:30:00,
2013-04-16 11:35:00,27.4,7.3,30.06,SE,141,8.0,11.0,42,0.00,,,0.00,Wunderground v.1.15,2013-04-16 19:35:00,
2013-04-16 11:41:00,27.6,6.9,30.06,South,173,6.0,11.0,41,0.00,,,0.00,Wunderground v.1.15,2013-04-16 19:41:00,
2013-04-16 11:46:00,27.7,7.0,30.06,SSE,166,5.0,11.0,41,0.00,,,0.00,Wunderground v.1.15,2013-04-16 19:46:00,
2013-04-16 11:52:00,28.0,7.3,30.06,SE,145,6.0,11.0,41,0.00,,,0.00,Wunderground v.1.15,2013-04-16 19:52:00,
2013-04-16 11:58:00,28.1,8.4,30.06,East,101,6.0,11.0,43,0.00,,,0.00,Wunderground v.1.15,2013-04-16 19:58:00,
2013-04-16 12:04:00,27.4,7.8,30.06,SE,146,7.0,11.0,43,0.00,,,0.00,Wunderground v.1.15,2013-04-16 20:04:00,
2013-04-16 12:09:00,27.4,7.8,30.06,ESE,123,8.0,11.0,43,0.00,,,0.00,Wunderground v.1.15,2013-04-16 20:09:00,
2013-04-16 12:15:00,27.5,7.4,30.06,SE,131,8.0,11.0,42,0.00,,,0.00,Wunderground v.1.15,2013-04-16 20:15:00,
2013-04-16 12:20:00,27.8,8.2,30.06,South,176,8.0,11.0,43,0.00,,,0.00,Wunderground v.1.15,2013-04-16 20:20:00,
2013-04-16 12:26:00,28.1,7.4,30.06,SSE,152,6.0,11.0,41,0.00,,,0.00,Wunderground v.1.15,2013-04-16 20:26:00,
2013-04-16 12:31:00,28.1,6.3,30.05,SE,131,6.0,11.0,39,0.00,,,0.00,Wunderground v.1.15,2013-04-16 20:31:00,
2013-04-16 12:37:00,28.4,8.7,30.05,SE,136,6.0,11.0,43,0.00,,,0.00,Wunderground v.1.15,2013-04-16 20:37:00,
2013-04-16 12:43:00,28.3,8.1,30.05,SE,128,7.0,11.0,42,0.00,,,0.00,Wunderground v.1.15,2013-04-16 20:43:00,
2013-04-16 12:48:00,28.2,7.5,30.05,SSE,149,8.0,13.0,41,0.00,,,0.00,Wunderground v.1.15,2013-04-16 20:48:00,
2013-04-16 12:54:00,27.8,7.1,30.04,SE,141,8.0,12.0,41,0.00,,,0.00,Wunderground v.1.15,2013-04-16 20:54:00,
2013-04-16 13:00:00,28.1,9.5,30.05,ESE,114,8.0,8.0,45,0.00,,,0.00,Wunderground v.1.15,2013-04-16 21:00:00,
2013-04-16 13:06:00,27.8,9.2,30.05,SE,129,8.0,11.0,45,0.00,,,0.00,Wunderground v.1.15,2013-04-16 21:06:00,
2013-04-16 13:11:00,27.8,9.2,30.05,SE,129,9.0,11.0,45,0.00,,,0.00,Wunderground v.1.15,2013-04-16 21:11:00,
2013-04-16 13:16:00,27.8,9.7,30.05,ESE,115,8.0,11.0,46,0.00,,,0.00,Wunderground v.1.15,2013-04-16 21:16:00,
2013-04-16 13:21:00,27.5,8.9,30.05,SE,138,9.0,12.0,45,0.00,,,0.00,Wunderground v.1.15,2013-04-16 21:21:00,
2013-04-16 13:27:00,27.4,9.3,30.05,ESE,117,11.0,13.0,46,0.00,,,0.00,Wunderground v.1.15,2013-04-16 21:27:00,
2013-04-16 13:33:00,27.6,10.0,30.05,ESE,107,10.0,13.0,47,0.00,,,0.00,Wunderground v.1.15,2013-04-16 21:33:00,
2013-04-16 13:38:00,27.7,10.1,30.05,ENE,69,9.0,13.0,47,0.00,,,0.00,Wunderground v.1.15,2013-04-16 21:38:00,
2013-04-16 13:44:00,27.7,10.1,30.04,ESE,110,10.0,14.0,47,0.00,,,0.00,Wunderground v.1.15,2013-04-16 21:44:00,
2013-04-16 13:49:00,27.9,10.2,30.04,East,93,10.0,14.0,47,0.00,,,0.00,Wunderground v.1.15,2013-04-16 21:49:00,
2013-04-16 13:54:00,28.3,9.6,30.04,East,101,9.0,12.0,45,0.00,,,0.00,Wunderground v.1.15,2013-04-16 21:54:00,
2013-04-16 14:00:00,28.1,9.5,30.04,SE,138,10.0,11.0,45,0.00,,,0.00,Wunderground v.1.15,2013-04-16 22:00:00,
2013-04-16 14:06:00,28.2,9.5,30.04,SSE,155,10.0,13.0,45,0.00,,,0.00,Wunderground v.1.15,2013-04-16 22:06:00,
2013-04-16 14:11:00,28.5,9.3,30.04,SE,128,9.0,10.0,44,0.00,,,0.00,Wunderground v.1.15,2013-04-16 22:11:00,
2013-04-16 14:16:00,28.5,8.8,30.04,SSE,157,9.0,11.0,43,0.00,,,0.00,Wunderground v.1.15,2013-04-16 22:16:00,
2013-04-16 14:21:00,28.4,9.2,30.04,ENE,68,9.0,11.0,44,0.00,,,0.00,Wunderground v.1.15,2013-04-16 22:21:00,
2013-04-16 14:27:00,28.6,9.4,30.04,SE,146,8.0,13.0,44,0.00,,,0.00,Wunderground v.1.15,2013-04-16 22:27:00,
2013-04-16 14:33:00,28.5,8.8,30.04,SE,145,9.0,14.0,43,0.00,,,0.00,Wunderground v.1.15,2013-04-16 22:33:00,
2013-04-16 14:38:00,28.7,8.5,30.04,ESE,113,8.0,14.0,42,0.00,,,0.00,Wunderground v.1.15,2013-04-16 22:38:00,
2013-04-16 14:44:00,28.6,9.9,30.04,SE,144,7.0,11.0,45,0.00,,,0.00,Wunderground v.1.15,2013-04-16 22:44:00,
2013-04-16 14:50:00,29.0,10.3,30.04,SE,138,8.0,11.0,45,0.00,,,0.00,Wunderground v.1.15,2013-04-16 22:50:00,
2013-04-16 14:55:00,28.9,9.7,30.04,South,179,8.0,11.0,44,0.00,,,0.00,Wunderground v.1.15,2013-04-16 22:55:00,
2013-04-16 15:01:00,28.8,10.1,30.04,SSE,150,7.0,11.0,45,0.00,,,0.00,Wunderground v.1.15,2013-04-16 23:01:00,
2013-04-16 15:07:00,28.9,9.2,30.04,SE,125,8.0,11.0,43,0.00,,,0.00,Wunderground v.1.15,2013-04-16 23:07:00,
2013-04-16 15:13:00,29.3,9.5,30.04,SSE,149,8.0,11.0,43,0.00,,,0.00,Wunderground v.1.15,2013-04-16 23:13:00,
2013-04-16 15:19:00,29.3,10.1,30.04,SSW,195,7.0,11.0,44,0.00,,,0.00,Wunderground v.1.15,2013-04-16 23:19:00,
2013-04-16 15:24:00,29.4,9.6,30.04,SE,134,8.0,11.0,43,0.00,,,0.00,Wunderground v.1.15,2013-04-16 23:24:00,
2013-04-16 15:30:00,29.5,9.7,30.03,SSE,159,8.0,11.0,43,0.00,,,0.00,Wunderground v.1.15,2013-04-16 23:30:00,
2013-04-16 15:35:00,29.3,10.1,30.04,SE,143,9.0,14.0,44,0.00,,,0.00,Wunderground v.1.15,2013-04-16 23:35:00,
2013-04-16 15:40:00,29.3,9.0,30.04,South,190,9.0,12.0,42,0.00,,,0.00,Wunderground v.1.15,2013-04-16 23:40:00,
2013-04-16 15:46:00,29.2,9.4,30.03,South,173,10.0,12.0,43,0.00,,,0.00,Wunderground v.1.15,2013-04-16 23:46:00,
2013-04-16 15:52:00,29.6,9.8,30.03,SSE,155,9.0,11.0,43,0.00,,,0.00,Wunderground v.1.15,2013-04-16 23:52:00,
2013-04-16 15:57:00,29.7,9.9,30.03,SSW,195,8.0,11.0,43,0.00,,,0.00,Wunderground v.1.15,2013-04-16 23:57:00,
2013-04-16 16:03:00,29.8,10.0,30.03,SSE,147,7.0,13.0,43,0.00,,,0.00,Wunderground v.1.15,2013-04-17 00:03:00,
2013-04-16 16:08:00,29.6,9.3,30.03,SSE,155,9.0,13.0,42,0.00,,,0.00,Wunderground v.1.15,2013-04-17 00:08:00,
2013-04-16 16:14:00,29.7,9.4,30.03,SSE,147,9.0,11.0,42,0.00,,,0.00,Wunderground v.1.15,2013-04-17 00:14:00,
2013-04-16 16:19:00,29.8,9.5,30.04,SE,134,8.0,11.0,42,0.00,,,0.00,Wunderground v.1.15,2013-04-17 00:19:00,
2013-04-16 16:25:00,29.8,9.5,30.04,SE,145,9.0,12.0,42,0.00,,,0.00,Wunderground v.1.15,2013-04-17 00:25:00,
2013-04-16 16:31:00,30.2,9.3,30.04,SE,139,7.0,11.0,41,0.00,,,0.00,Wunderground v.1.15,2013-04-17 00:31:00,
2013-04-16 16:36:00,30.2,8.7,30.03,SSE,149,7.0,13.0,40,0.00,,,0.00,Wunderground v.1.15,2013-04-17 00:36:00,
2013-04-16 16:42:00,30.2,8.7,30.03,South,172,9.0,13.0,40,0.00,,,0.00,Wunderground v.1.15,2013-04-17 00:42:00,
2013-04-16 16:47:00,30.1,8.7,30.03,SE,146,9.0,13.0,40,0.00,,,0.00,Wunderground v.1.15,2013-04-17 00:47:00,
2013-04-16 16:53:00,30.5,9.0,30.03,SE,136,9.0,11.0,40,0.00,,,0.00,Wunderground v.1.15,2013-04-17 00:53:00,
2013-04-16 16:59:00,30.5,8.4,30.03,South,177,9.0,11.0,39,0.00,,,0.00,Wunderground v.1.15,2013-04-17 00:59:00,
2013-04-16 17:04:00,30.1,8.7,30.02,SE,134,11.0,19.0,40,0.00,,,0.00,Wunderground v.1.15,2013-04-17 01:04:00,
2013-04-16 17:10:00,30.4,10.0,30.02,SSE,167,11.0,12.0,42,0.00,,,0.00,Wunderground v.1.15,2013-04-17 01:10:00,
2013-04-16 17:16:00,30.5,9.0,30.02,SSE,163,10.0,15.0,40,0.00,,,0.00,Wunderground v.1.15,2013-04-17 01:16:00,
2013-04-16 17:22:00,30.6,8.0,30.02,SSE,162,9.0,12.0,38,0.00,,,0.00,Wunderground v.1.15,2013-04-17 01:22:00,
2013-04-16 17:28:00,30.8,8.7,30.02,SE,131,7.0,12.0,39,0.00,,,0.00,Wunderground v.1.15,2013-04-17 01:28:00,
2013-04-16 17:33:00,30.7,8.1,30.02,SE,145,7.0,13.0,38,0.00,,,0.00,Wunderground v.1.15,2013-04-17 01:33:00,
2013-04-16 17:39:00,30.5,7.9,30.02,SE,145,9.0,9.0,38,0.00,,,0.00,Wunderground v.1.15,2013-04-17 01:39:00,
2013-04-16 17:45:00,30.6,7.4,30.02,SSE,162,8.0,12.0,37,0.00,,,0.00,Wunderground v.1.15,2013-04-17 01:45:00,
2013-04-16 17:51:00,30.6,7.4,30.02,SSE,160,7.0,11.0,37,0.00,,,0.00,Wunderground v.1.15,2013-04-17 01:51:00,
2013-04-16 17:56:00,30.5,7.3,30.02,SE,127,8.0,11.0,37,0.00,,,0.00,Wunderground v.1.15,2013-04-17 01:56:00,
2013-04-16 18:01:00,30.5,7.9,30.02,SE,129,8.0,11.0,38,0.00,,,0.00,Wunderground v.1.15,2013-04-17 02:01:00,
2013-04-16 18:07:00,30.2,7.0,30.02,ESE,121,8.0,13.0,37,0.00,,,0.00,Wunderground v.1.15,2013-04-17 02:07:00,
2013-04-16 18:12:00,30.2,8.2,30.02,SE,144,9.0,11.0,39,0.00,,,0.00,Wunderground v.1.15,2013-04-17 02:12:00,
2013-04-16 18:18:00,30.1,7.5,30.03,ESE,121,8.0,14.0,38,0.00,,,0.00,Wunderground v.1.15,2013-04-17 02:18:00,
2013-04-16 18:24:00,30.0,7.4,30.03,SE,141,9.0,11.0,38,0.00,,,0.00,Wunderground v.1.15,2013-04-17 02:24:00,
2013-04-16 18:29:00,29.8,6.7,30.03,SE,143,10.0,11.0,37,0.00,,,0.00,Wunderground v.1.15,2013-04-17 02:29:00,
2013-04-16 18:35:00,30.1,8.1,30.03,ESE,118,9.0,11.0,39,0.00,,,0.00,Wunderground v.1.15,2013-04-17 02:35:00,
2013-04-16 18:41:00,30.1,7.5,30.03,ESE,121,7.0,11.0,38,0.00,,,0.00,Wunderground v.1.15,2013-04-17 02:41:00,
2013-04-16 18:47:00,29.9,9.0,30.03,SSE,148,7.0,13.0,41,0.00,,,0.00,Wunderground v.1.15,2013-04-17 02:47:00,
2013-04-16 18:52:00,29.7,9.4,30.02,SE,133,8.0,11.0,42,0.00,,,0.00,Wunderground v.1.15,2013-04-17 02:52:00,
2013-04-16 18:59:00,29.6,10.8,30.03,SSE,153,8.0,11.0,45,0.00,,,0.00,Wunderground v.1.15,2013-04-17 02:59:00,
2013-04-16 19:05:00,29.3,10.6,30.03,SSE,153,7.0,11.0,45,0.00,,,0.00,Wunderground v.1.15,2013-04-17 03:05:00,
2013-04-16 19:11:00,29.2,11.0,30.03,East,98,8.0,11.0,46,0.00,,,0.00,Wunderground v.1.15,2013-04-17 03:11:00,
2013-04-16 19:16:00,29.1,11.4,30.02,SE,143,7.0,11.0,47,0.00,,,0.00,Wunderground v.1.15,2013-04-17 03:16:00,
2013-04-16 19:22:00,29.0,11.3,30.02,East,101,7.0,11.0,47,0.00,,,0.00,Wunderground v.1.15,2013-04-17 03:22:00,
2013-04-16 19:28:00,28.9,11.2,30.02,SE,135,7.0,11.0,47,0.00,,,0.00,Wunderground v.1.15,2013-04-17 03:28:00,
2013-04-16 19:34:00,28.9,10.7,30.02,East,101,7.0,11.0,46,0.00,,,0.00,Wunderground v.1.15,2013-04-17 03:34:00,
2013-04-16 19:39:00,28.6,10.9,30.03,ESE,116,8.0,8.0,47,0.00,,,0.00,Wunderground v.1.15,2013-04-17 03:39:00,
2013-04-16 19:46:00,28.3,11.1,30.03,SE,135,8.0,13.0,48,0.00,,,0.00,Wunderground v.1.15,2013-04-17 03:46:00,
2013-04-16 19:52:00,28.2,11.0,30.03,SE,133,9.0,11.0,48,0.00,,,0.00,Wunderground v.1.15,2013-04-17 03:52:00,
2013-04-16 19:57:00,28.1,10.9,30.03,ESE,116,9.0,11.0,48,0.00,,,0.00,Wunderground v.1.15,2013-04-17 03:57:00,
2013-04-16 20:01:00,28.0,11.3,30.03,ESE,105,9.0,11.0,49,0.00,,,0.00,Wunderground v.1.15,2013-04-17 04:01:00,
2013-04-16 20:02:00,28.0,11.3,30.03,ESE,122,9.0,11.0,49,0.00,,,0.00,Wunderground v.1.15,2013-04-17 04:02:00,
2013-04-16 20:06:00,27.7,11.0,30.03,SE,134,7.0,11.0,49,0.00,,,0.00,Wunderground v.1.15,2013-04-17 04:06:00,
2013-04-16 20:12:00,27.4,10.7,30.03,ESE,122,7.0,11.0,49,0.00,,,0.00,Wunderground v.1.15,2013-04-17 04:12:00,
2013-04-16 20:18:00,27.2,11.0,30.03,SE,124,7.0,11.0,50,0.00,,,0.00,Wunderground v.1.15,2013-04-17 04:18:00,
2013-04-16 20:20:00,27.1,10.9,30.03,SE,125,7.0,11.0,50,0.00,,,0.00,Wunderground v.1.15,2013-04-17 04:20:00,
2013-04-16 20:25:00,26.8,10.6,30.03,SSE,155,7.0,11.0,50,0.00,,,0.00,Wunderground v.1.15,2013-04-17 04:25:00,
2013-04-16 20:31:00,26.4,10.3,30.03,ESE,104,7.0,11.0,50,0.00,,,0.00,Wunderground v.1.15,2013-04-17 04:31:00,
2013-04-16 20:37:00,26.3,10.2,30.03,SE,139,7.0,11.0,50,0.00,,,0.00,Wunderground v.1.15,2013-04-17 04:37:00,
2013-04-16 20:43:00,26.1,10.0,30.03,SE,134,7.0,11.0,50,0.00,,,0.00,Wunderground v.1.15,2013-04-17 04:43:00,
2013-04-16 20:48:00,25.8,9.7,30.03,SE,134,7.0,11.0,50,0.00,,,0.00,Wunderground v.1.15,2013-04-17 04:48:00,
2013-04-16 20:53:00,25.4,9.8,30.03,ESE,114,7.0,11.0,51,0.00,,,0.00,Wunderground v.1.15,2013-04-17 04:53:00,
2013-04-16 20:59:00,25.1,9.9,30.03,SE,131,7.0,11.0,52,0.00,,,0.00,Wunderground v.1.15,2013-04-17 04:59:00,
2013-04-16 21:05:00,24.8,9.6,30.03,SE,135,7.0,11.0,52,0.00,,,0.00,Wunderground v.1.15,2013-04-17 05:05:00,
2013-04-16 21:10:00,24.5,9.8,30.03,SSE,148,8.0,11.0,53,0.00,,,0.00,Wunderground v.1.15,2013-04-17 05:10:00,
2013-04-16 21:16:00,24.6,9.9,30.03,SE,135,9.0,12.0,53,0.00,,,0.00,Wunderground v.1.15,2013-04-17 05:16:00,
2013-04-16 21:21:00,24.6,9.9,30.03,SSE,151,9.0,11.0,53,0.00,,,0.00,Wunderground v.1.15,2013-04-17 05:21:00,
2013-04-16 21:27:00,24.4,9.7,30.03,SE,133,8.0,11.0,53,0.00,,,0.00,Wunderground v.1.15,2013-04-17 05:27:00,
2013-04-16 21:33:00,24.0,9.7,30.03,SE,136,8.0,11.0,54,0.00,,,0.00,Wunderground v.1.15,2013-04-17 05:33:00,
2013-04-16 21:39:00,23.5,9.7,30.03,SE,146,9.0,12.0,55,0.00,,,0.00,Wunderground v.1.15,2013-04-17 05:39:00,
2013-04-16 21:44:00,23.1,9.3,30.03,SE,135,10.0,12.0,55,0.00,,,0.00,Wunderground v.1.15,2013-04-17 05:44:00,
2013-04-16 21:50:00,22.7,9.3,30.03,SE,143,10.0,13.0,56,0.00,,,0.00,Wunderground v.1.15,2013-04-17 05:50:00,
2013-04-16 21:56:00,22.6,9.2,30.03,SE,141,10.0,13.0,56,0.00,,,0.00,Wunderground v.1.15,2013-04-17 05:56:00,
2013-04-16 22:02:00,22.8,9.8,30.03,SE,132,10.0,12.0,57,0.00,,,0.00,Wunderground v.1.15,2013-04-17 06:02:00,
2013-04-16 22:07:00,22.8,9.4,30.03,SE,146,9.0,12.0,56,0.00,,,0.00,Wunderground v.1.15,2013-04-17 06:07:00,
2013-04-16 22:13:00,22.8,9.4,30.03,SE,145,9.0,12.0,56,0.00,,,0.00,Wunderground v.1.15,2013-04-17 06:13:00,
2013-04-16 22:19:00,23.0,9.6,30.03,SE,129,9.0,12.0,56,0.00,,,0.00,Wunderground v.1.15,2013-04-17 06:19:00,
2013-04-16 22:25:00,23.1,9.7,30.03,SE,142,9.0,12.0,56,0.00,,,0.00,Wunderground v.1.15,2013-04-17 06:25:00,
2013-04-16 22:30:00,23.1,9.7,30.03,SE,138,9.0,11.0,56,0.00,,,0.00,Wunderground v.1.15,2013-04-17 06:30:00,
2013-04-16 22:36:00,23.1,9.7,30.03,SSE,158,9.0,11.0,56,0.00,,,0.00,Wunderground v.1.15,2013-04-17 06:36:00,
2013-04-16 22:42:00,23.1,9.7,30.04,South,170,9.0,11.0,56,0.00,,,0.00,Wunderground v.1.15,2013-04-17 06:42:00,
2013-04-16 22:48:00,22.9,9.9,30.04,SE,134,8.0,11.0,57,0.00,,,0.00,Wunderground v.1.15,2013-04-17 06:48:00,
2013-04-16 22:53:00,22.8,9.8,30.04,SE,143,8.0,11.0,57,0.00,,,0.00,Wunderground v.1.15,2013-04-17 06:53:00,
2013-04-16 22:59:00,22.6,9.6,30.04,SE,126,8.0,8.0,57,0.00,,,0.00,Wunderground v.1.15,2013-04-17 06:59:00,
2013-04-16 23:05:00,22.2,9.7,30.04,SE,127,8.0,11.0,58,0.00,,,0.00,Wunderground v.1.15,2013-04-17 07:05:00,
2013-04-16 23:11:00,21.2,9.1,30.04,SE,131,9.0,11.0,59,0.00,,,0.00,Wunderground v.1.15,2013-04-17 07:11:00,
2013-04-16 23:16:00,20.8,9.1,30.04,SE,140,10.0,12.0,60,0.00,,,0.00,Wunderground v.1.15,2013-04-17 07:16:00,
2013-04-16 23:22:00,20.9,9.2,30.04,SSE,154,9.0,11.0,60,0.00,,,0.00,Wunderground v.1.15,2013-04-17 07:22:00,
2013-04-16 23:28:00,21.0,9.6,30.04,SE,145,9.0,11.0,61,0.00,,,0.00,Wunderground v.1.15,2013-04-17 07:28:00,
2013-04-16 23:34:00,21.1,9.4,30.04,SE,136,9.0,11.0,60,0.00,,,0.00,Wunderground v.1.15,2013-04-17 07:34:00,
2013-04-16 23:40:00,21.3,9.6,30.04,ESE,109,8.0,11.0,60,0.00,,,0.00,Wunderground v.1.15,2013-04-17 07:40:00,
2013-04-16 23:45:00,21.3,9.6,30.04,SE,135,8.0,11.0,60,0.00,,,0.00,Wunderground v.1.15,2013-04-17 07:45:00,
2013-04-16 23:50:00,21.2,9.8,30.04,SSE,152,7.0,11.0,61,0.00,,,0.00,Wunderground v.1.15,2013-04-17 07:50:00,
2013-04-16 23:56:00,21.2,9.8,30.04,SE,132,7.0,11.0,61,0.00,,,0.00,Wunderground v.1.15,2013-04-17 07:56:00,